Weather History for KESF - August, 2013

Change the Weather History Date:

Monday, August 5, 2013

  Actual Average Record
Temperature  
Mean Temperature 85 °F -  
Max Temperature 98 °F 91 °F 101 °F (1964)
Min Temperature 73 °F 70 °F 59 °F (1974)
Cooling Degree Days 20    
Growing Degree Days 35 (Base 50)    
Moisture  
Dew Point 73 °F    
Average Humidity 72    
Maximum Humidity 94    
Minimum Humidity 41    
Precipitation  
Precipitation 0.00 in - - ()
Sea Level Pressure  
Sea Level Pressure 30.00 in    
Wind  
Wind Speed 2 mph (SW)    
Max Wind Speed 10 mph    
Max Gust Speed -    
Visibility 8 miles    
Events      
Averages and records for this station are not official NWS values.
T = Trace of Precipitation, MM = Missing Value Source: NWS Daily Summary

Daily Weather History Graph

Daily Weather History Graph

Search for Another Location

Airport or City:

Trip Planner

Search our weather history database for the weather conditions in past years. The results will help you decide how hot, cold, wet, or windy it might be!

Date:

Astronomy

Aug. 05, 2013 Rise Set
Actual Time 6:28 AM CDT 8:01 PM CDT
Civil Twilight 6:02 AM CDT 8:27 PM CDT
Nautical Twilight 5:30 AM CDT 8:58 PM CDT
Astronomical Twilight 4:58 AM CDT 9:31 PM CDT
Moon 5:23 AM CDT (8/5) 7:04 PM CDT (8/5)
Length of Visible Light 14h 25m
Length of Day
13h 33m
Waning Crescent, 1% of the Moon is Illuminated
Aug 5
Waning Crescent
Aug 6
New
Aug 14
First Quarter
Aug 20
Full
Aug 28
Last Quarter

Hourly Weather History & Observations

Time (CDT) Temp. Heat Index Dew Point Humidity Pressure Visibility Wind Dir Wind Speed Gust Speed Precip Events Conditions
12:53 AM 75.9 °F - 73.0 °F 91% 30.04 in 10.0 mi Calm Calm - N/A   Clear
1:53 AM 77.0 °F - 73.0 °F 88% 30.02 in 10.0 mi Calm Calm - N/A   Clear
2:53 AM 77.0 °F - 73.0 °F 88% 30.01 in 10.0 mi West 3.5 mph - N/A   Clear
3:53 AM 75.9 °F - 72.0 °F 87% 30.01 in 10.0 mi Calm Calm - N/A   Clear
4:53 AM 73.9 °F - 72.0 °F 93% 30.01 in 10.0 mi Calm Calm - N/A   Clear
5:36 AM 75.2 °F - 71.6 °F 89% 30.02 in 1.8 mi Calm Calm - N/A   Clear
5:53 AM 73.9 °F - 72.0 °F 93% 30.02 in 1.0 mi Calm Calm - N/A   Clear
6:01 AM 73.4 °F - 71.6 °F 94% 30.03 in 3.0 mi Calm Calm - N/A   Clear
6:13 AM 75.2 °F - 73.4 °F 94% 30.03 in 1.8 mi Calm Calm - N/A   Clear
6:32 AM 75.2 °F - 71.6 °F 89% 30.03 in 3.0 mi Calm Calm - N/A   Clear
6:38 AM 75.2 °F - 71.6 °F 89% 30.04 in 1.8 mi Calm Calm - N/A   Clear
6:53 AM 75.0 °F - 73.0 °F 94% 30.04 in 3.0 mi Calm Calm - N/A   Clear
7:53 AM 79.0 °F - 75.0 °F 88% 30.05 in 10.0 mi Calm Calm - N/A   Clear
8:53 AM 84.9 °F 94.1 °F 75.9 °F 74% 30.05 in 10.0 mi West 9.2 mph - N/A   Partly Cloudy
9:53 AM 88.0 °F 97.5 °F 75.0 °F 65% 30.05 in 10.0 mi West 9.2 mph - N/A   Clear
10:53 AM 90.0 °F 99.0 °F 73.9 °F 59% 30.05 in 10.0 mi WSW 9.2 mph - N/A   Scattered Clouds
11:53 AM 93.0 °F 101.9 °F 73.0 °F 52% 30.03 in 10.0 mi West 8.1 mph - N/A   Clear
12:53 PM 93.9 °F 102.1 °F 72.0 °F 49% 30.01 in 10.0 mi West 10.4 mph - N/A   Partly Cloudy
1:53 PM 96.1 °F 102.9 °F 70.0 °F 43% 30.00 in 10.0 mi WSW 6.9 mph - N/A   Partly Cloudy
2:53 PM 97.0 °F 103.5 °F 70.0 °F 41% 29.97 in 10.0 mi Calm Calm - N/A   Clear
3:53 PM 97.0 °F 103.5 °F 70.0 °F 41% 29.94 in 10.0 mi Variable 3.5 mph - N/A   Clear
4:53 PM 95.0 °F 102.5 °F 71.1 °F 46% 29.94 in 10.0 mi Calm Calm - N/A   Partly Cloudy
5:53 PM 93.9 °F 103.4 °F 73.0 °F 51% 29.92 in 10.0 mi Calm Calm - N/A   Scattered Clouds
6:53 PM 95.0 °F 105.2 °F 73.9 °F 50% 29.92 in 10.0 mi East 4.6 mph - N/A   Overcast
7:53 PM 90.0 °F 101.3 °F 75.9 °F 63% 29.94 in 10.0 mi Calm Calm - N/A   Mostly Cloudy
8:53 PM 87.1 °F 95.4 °F 73.9 °F 65% 29.94 in 10.0 mi SSE 6.9 mph - N/A   Partly Cloudy
9:53 PM 84.9 °F 92.1 °F 73.9 °F 69% 29.96 in 10.0 mi SSE 3.5 mph - N/A   Clear
10:53 PM 84.9 °F 93.3 °F 75.0 °F 72% 29.96 in 10.0 mi South 5.8 mph - N/A   Clear
11:53 PM 82.9 °F 90.2 °F 75.0 °F 77% 29.95 in 10.0 mi SW 6.9 mph - N/A   Clear